Weather History for Dublin, VA

Change the Weather History Date:

Wednesday, May 28, 2014

  Actual Average (KBCB) Record (KBCB)
Temperature  
Mean Temperature 71 °F 63 °F  
Max Temperature 83 °F 74 °F 87 °F (1955)
Min Temperature 59 °F 51 °F 35 °F (1972)
Degree Days  
Heating Degree Days 0 4  
Month to date heating degree days 192  
Since 1 July heating degree days 5397  
Cooling Degree Days 6 2  
Month to date cooling degree days 18  
Year to date cooling degree days 21  
Growing Degree Days 21 (Base 50)    
Moisture  
Dew Point 60 °F    
Average Humidity 72    
Maximum Humidity 100    
Minimum Humidity 42    
Precipitation  
Precipitation 0.00 in 0.16 in 2.60 in (1973)
Month to date precipitation 3.86  
Year to date precipitation 16.87  
Snow  
Snow 0.00 in - - ()
Month to date snowfall  
Since 1 July snowfall  
Snow Depth -    
Sea Level Pressure  
Sea Level Pressure 30.08 in    
Wind  
Wind Speed 3 mph (WSW)    
Max Wind Speed 9 mph    
Max Gust Speed -    
Visibility 10 miles    
Events Rain , Thunderstorm    
T = Trace of Precipitation, MM = Missing Value Source: NWS Daily Summary

Daily Weather History Graph

Daily Weather History Graph

Search for Another Location

Airport:

Trip Planner

Search our weather history database for the weather conditions in past years. The results will help you decide how hot, cold, wet, or windy it might be!

Date:

Astronomy

May. 28, 2014 Rise Set
Actual Time 6:05 AM EDT 8:34 PM EDT
Civil Twilight 5:35 AM EDT 9:04 PM EDT
Nautical Twilight 4:58 AM EDT 9:41 PM EDT
Astronomical Twilight 4:17 AM EDT 10:23 PM EDT
Moon 6:09 AM EDT (5/28) 8:32 PM EDT (5/28)
Length of Visible Light 15h 28m
Length of Day
14h 28m
Waning Crescent, 0% of the Moon is Illuminated
May 28
Waning Crescent
May 28
New
Jun 5
First Quarter
Jun 13
Full
Jun 19
Last Quarter

Hourly Weather History & Observations

Time (EDT) Temp. Heat Index Dew Point Humidity Pressure Visibility Wind Dir Wind Speed Gust Speed Precip Events Conditions
12:15 AM 63.0 °F - 59.9 °F 90% 30.09 in 10.0 mi Calm Calm - N/A   Clear
12:35 AM 62.6 °F - 59.9 °F 91% 30.09 in 10.0 mi WSW 3.5 mph - N/A   Clear
12:55 AM 62.1 °F - 59.9 °F 93% 30.09 in 10.0 mi Calm Calm - N/A   Clear
1:15 AM 62.2 °F - 59.9 °F 92% 30.09 in 10.0 mi Calm Calm - N/A   Clear
1:35 AM 62.1 °F - 59.9 °F 93% 30.09 in 10.0 mi Calm Calm - N/A   Clear
1:55 AM 61.5 °F - 59.4 °F 93% 30.08 in 10.0 mi SSW 3.5 mph - N/A   Clear
2:15 AM 61.5 °F - 59.4 °F 93% 30.08 in 10.0 mi SSW 5.8 mph - N/A   Clear
2:35 AM 61.0 °F - 59.7 °F 96% 30.08 in 10.0 mi SSW 5.8 mph - N/A   Clear
2:55 AM 61.5 °F - 59.9 °F 94% 30.08 in 10.0 mi SW 3.5 mph - N/A   Clear
3:15 AM 59.9 °F - 59.0 °F 97% 30.07 in 10.0 mi SW 4.6 mph - N/A   Clear
3:35 AM 60.3 °F - 59.5 °F 97% 30.07 in 10.0 mi WSW 3.5 mph - N/A   Clear
3:55 AM 60.3 °F - 59.4 °F 97% 30.07 in 10.0 mi SSW 3.5 mph - N/A   Clear
4:15 AM 60.8 °F - 60.1 °F 97% 30.07 in 10.0 mi SSW 5.8 mph - N/A   Clear
4:35 AM 60.8 °F - 60.1 °F 97% 30.07 in 10.0 mi SSW 5.8 mph - N/A   Clear
5:15 AM 60.8 °F - 60.3 °F 98% 30.07 in 10.0 mi South 3.5 mph - N/A   Clear
5:35 AM 60.1 °F - 59.5 °F 98% 30.07 in 7.0 mi Calm Calm - N/A   Clear
5:55 AM 59.2 °F - 59.0 °F 99% 30.07 in 5.0 mi Calm Calm - N/A   Clear
6:15 AM 60.1 °F - 60.1 °F 100% 30.07 in 7.0 mi SSW 4.6 mph - N/A   Clear
6:35 AM 60.3 °F - 60.3 °F 100% 30.08 in 5.0 mi SW 3.5 mph - N/A   Clear
6:55 AM 60.4 °F - 60.4 °F 100% 30.08 in 5.0 mi WSW 4.6 mph - N/A   Clear
7:15 AM 62.1 °F - 62.1 °F 100% 30.09 in 5.0 mi SW 4.6 mph - N/A   Clear
7:35 AM 62.8 °F - 62.2 °F 98% 30.09 in 7.0 mi SW 4.6 mph - N/A   Clear
7:55 AM 63.9 °F - 63.3 °F 98% 30.10 in 7.0 mi SSW 3.5 mph - N/A   Scattered Clouds
8:15 AM 64.9 °F - 63.5 °F 95% 30.10 in 7.0 mi Calm Calm - N/A   Scattered Clouds
8:35 AM 68.0 °F - 64.4 °F 88% 30.11 in 10.0 mi West 3.5 mph - N/A   Scattered Clouds
8:55 AM 69.4 °F - 63.5 °F 81% 30.11 in 10.0 mi WSW 3.5 mph - N/A   Clear
9:15 AM 71.1 °F - 63.9 °F 78% 30.11 in 10.0 mi West 6.9 mph - N/A   Scattered Clouds
9:55 AM 72.5 °F - 64.2 °F 75% 30.11 in 10.0 mi West 4.6 mph - N/A   Scattered Clouds
10:15 AM 73.0 °F - 63.9 °F 73% 30.11 in 10.0 mi West 4.6 mph - N/A   Scattered Clouds
10:35 AM 74.1 °F - 63.5 °F 69% 30.12 in 10.0 mi West 8.1 mph - N/A   Scattered Clouds
10:55 AM 74.5 °F - 63.1 °F 68% 30.12 in 10.0 mi West 5.8 mph - N/A   Mostly Cloudy
11:15 AM 75.4 °F - 63.7 °F 67% 30.12 in 10.0 mi West 8.1 mph - N/A   Mostly Cloudy
11:35 AM 77.2 °F - 63.9 °F 63% 30.12 in 10.0 mi NW 5.8 mph - N/A   Mostly Cloudy
11:55 AM 76.5 °F - 63.7 °F 64% 30.12 in 10.0 mi WNW 6.9 mph - N/A   Mostly Cloudy
12:15 PM 77.4 °F - 61.7 °F 58% 30.11 in 10.0 mi WNW 6.9 mph - N/A   Mostly Cloudy
12:35 PM 79.3 °F - 61.3 °F 54% 30.11 in 10.0 mi Calm Calm - N/A   Scattered Clouds
12:55 PM 78.3 °F - 59.5 °F 52% 30.10 in 10.0 mi West 4.6 mph - N/A   Scattered Clouds
1:15 PM 79.7 °F - 60.4 °F 52% 30.10 in 10.0 mi WNW 4.6 mph - N/A   Scattered Clouds
1:35 PM 80.2 °F 80.9 °F 59.7 °F 49% 30.10 in 10.0 mi NW 4.6 mph - N/A   Scattered Clouds
2:15 PM 81.0 °F 81.7 °F 60.6 °F 50% 30.09 in 10.0 mi NW 4.6 mph - N/A   Mostly Cloudy
2:35 PM 79.3 °F - 60.3 °F 52% 30.08 in 10.0 mi Calm Calm - N/A   Overcast
2:55 PM 81.1 °F 81.1 °F 56.8 °F 43% 30.08 in 10.0 mi WNW 5.8 mph - N/A   Scattered Clouds
3:15 PM 83.3 °F 83.1 °F 58.5 °F 43% 30.07 in 10.0 mi West 8.1 mph - N/A   Mostly Cloudy
3:35 PM 79.5 °F - 59.2 °F 50% 30.07 in 10.0 mi WNW 9.2 mph - N/A   Mostly Cloudy
3:55 PM 77.4 °F - 61.7 °F 58% 30.06 in 10.0 mi West 5.8 mph - N/A Rain Light Rain
4:15 PM 80.6 °F 81.2 °F 59.5 °F 49% 30.06 in 10.0 mi West 6.9 mph - N/A   Scattered Clouds
4:35 PM 81.0 °F 81.1 °F 57.7 °F 45% 30.06 in 10.0 mi West 4.6 mph - N/A   Clear
4:55 PM 81.5 °F 81.8 °F 59.5 °F 47% 30.04 in 10.0 mi WNW 5.8 mph - N/A   Clear
5:15 PM 81.5 °F 81.7 °F 58.6 °F 46% 30.04 in 10.0 mi West 6.9 mph - N/A   Clear
5:35 PM 81.7 °F 81.5 °F 57.4 °F 43% 30.05 in 10.0 mi West 8.1 mph - N/A   Clear
5:55 PM 81.5 °F 81.3 °F 56.1 °F 42% 30.04 in 10.0 mi West 5.8 mph - N/A   Clear
6:15 PM 81.5 °F 81.3 °F 56.1 °F 42% 30.04 in 10.0 mi West 3.5 mph - N/A   Clear
6:35 PM 80.6 °F 80.9 °F 58.1 °F 46% 30.04 in 10.0 mi West 5.8 mph - N/A   Clear
6:55 PM 79.0 °F - 60.1 °F 52% 30.04 in 10.0 mi West 8.1 mph - N/A   Clear
7:15 PM 77.5 °F - 59.9 °F 54% 30.05 in 10.0 mi West 5.8 mph - N/A   Clear
7:35 PM 76.1 °F - 59.9 °F 57% 30.06 in 10.0 mi WNW 3.5 mph - N/A Thunderstorm Clear
7:55 PM 73.4 °F - 60.8 °F 65% 30.07 in 10.0 mi Calm Calm - N/A   Clear
8:15 PM 73.6 °F - 59.9 °F 62% 30.07 in 10.0 mi WNW 8.1 mph - N/A   Clear
8:35 PM 72.9 °F - 59.5 °F 63% 30.08 in 10.0 mi WNW 4.6 mph - N/A   Clear
8:55 PM 71.2 °F - 59.2 °F 66% 30.09 in 10.0 mi WSW 5.8 mph - N/A   Clear
9:15 PM 70.0 °F - 58.6 °F 67% 30.09 in 10.0 mi West 4.6 mph - N/A   Clear
9:35 PM 70.7 °F - 57.2 °F 62% 30.10 in 10.0 mi WNW 3.5 mph - N/A   Clear
9:55 PM 69.1 °F - 57.2 °F 66% 30.10 in 10.0 mi Calm Calm - N/A   Clear
10:35 PM 67.3 °F - 56.8 °F 69% 30.11 in 10.0 mi Calm Calm - N/A   Clear
10:55 PM 66.9 °F - 56.5 °F 69% 30.11 in 10.0 mi Calm Calm - N/A   Clear
11:15 PM 67.6 °F - 56.7 °F 68% 30.11 in 10.0 mi Calm Calm - N/A   Scattered Clouds
11:55 PM 68.2 °F - 56.8 °F 67% 30.11 in 10.0 mi Calm Calm - N/A   Overcast